| time (UTC) | temp C | wind direction | speed KPH | gust KPH | rain 1hr cm | rain 24hr cm | rain mn cm | humidity % | barometer mb |
| 20260507012527 | 13 | 301 | 3.2 | 6.4 | 0.00 | 0.56 | 0.56 | 89 | 1014.4 |
| 20260507011532 | 13 | 247 | 3.2 | 8.0 | 0.00 | 0.56 | 0.56 | 89 | 1014.4 |
| 20260507010518 | 14 | 275 | 4.8 | 8.0 | 0.00 | 0.56 | 0.56 | 88 | 1014.4 |
| 20260507005523 | 14 | 278 | 6.4 | 11.3 | 0.00 | 0.56 | 0.56 | 88 | 1014.4 |
| 20260507004528 | 14 | 244 | 3.2 | 6.4 | 0.00 | 0.56 | 0.56 | 88 | 1014.2 |
| 20260507003532 | 14 | 235 | 3.2 | 4.8 | 0.00 | 0.56 | 0.56 | 87 | 1013.9 |
| 20260507002539 | 15 | 278 | 6.4 | 12.9 | 0.00 | 0.56 | 0.56 | 87 | 1013.8 |
| 20260507001524 | 15 | 303 | 8.0 | 14.5 | 0.00 | 0.56 | 0.56 | 87 | 1013.7 |
| 20260507000529 | 15 | 292 | 11.3 | 16.1 | 0.00 | 0.56 | 0.56 | 86 | 1013.7 |
| 20260506235516 | 15 | 317 | 12.9 | 17.7 | 0.00 | 0.56 | 0.56 | 86 | 1013.0 |
| 20260506234541 | 15 | 297 | 9.7 | 14.5 | 0.00 | 0.56 | 0.56 | 87 | 1012.6 |
| 20260506233526 | 16 | 294 | 8.0 | 11.3 | 0.00 | 0.56 | 0.56 | 87 | 1012.2 |
| 20260506232530 | 16 | 297 | 9.7 | 17.7 | 0.00 | 0.56 | 0.56 | 86 | 1012.4 |
| 20260506231516 | 16 | 290 | 11.3 | 14.5 | 0.00 | 0.56 | 0.56 | 87 | 1012.3 |
| 20260506230522 | 16 | 303 | 8.0 | 12.9 | 0.00 | 0.56 | 0.56 | 87 | 1012.2 |
| 20260506225526 | 17 | 290 | 6.4 | 9.7 | 0.00 | 0.56 | 0.56 | 87 | 1012.1 |
| 20260506224531 | 17 | 296 | 6.4 | 8.0 | 0.00 | 0.56 | 0.56 | 87 | 1012.2 |
| 20260506223517 | 17 | 288 | 6.4 | 11.3 | 0.00 | 0.56 | 0.56 | 86 | 1012.1 |
| 20260506222523 | 17 | 290 | 6.4 | 9.7 | 0.00 | 0.56 | 0.56 | 86 | 1011.9 |
| 20260506221526 | 17 | 257 | 6.4 | 9.7 | 0.00 | 0.56 | 0.56 | 84 | 1011.8 |
| 20260506220552 | 18 | 254 | 8.0 | 12.9 | 0.00 | 0.56 | 0.56 | 84 | 1011.7 |
| 20260506215519 | 18 | 270 | 9.7 | 12.9 | 0.00 | 0.56 | 0.56 | 87 | 1011.6 |
| 20260506214523 | 18 | 252 | 4.8 | 9.7 | 0.00 | 0.56 | 0.56 | 99 | 1011.3 |
| 20260506213529 | 17 | 242 | 6.4 | 9.7 | 0.00 | 0.56 | 0.56 | 99 | 1011.3 |
| 20260506212533 | 17 | 257 | 6.4 | 8.0 | 0.00 | 0.56 | 0.56 | 99 | 1011.0 |
| 20260506211521 | 18 | 259 | 4.8 | 6.4 | 0.00 | 0.56 | 0.56 | 98 | 1010.7 |
| 20260506210524 | 18 | 248 | 6.4 | 11.3 | 0.00 | 0.56 | 0.56 | 96 | 1010.6 |
| 20260506205530 | 18 | 243 | 6.4 | 9.7 | 0.00 | 0.56 | 0.56 | 95 | 1010.5 |
| 20260506204515 | 18 | 218 | 4.8 | 8.0 | 0.00 | 0.56 | 0.56 | 93 | 1010.5 |
| 20260506203520 | 18 | 257 | 6.4 | 9.7 | 0.00 | 0.56 | 0.56 | 92 | 1010.3 |
| 20260506202525 | 19 | 252 | 9.7 | 14.5 | 0.00 | 0.56 | 0.56 | 91 | 1010.3 |
| 20260506201524 | 20 | 257 | 9.7 | 14.5 | 0.00 | 0.56 | 0.56 | 91 | 1010.4 |
| 20260506200516 | 19 | 258 | 8.0 | 11.3 | 0.00 | 0.56 | 0.56 | 93 | 1010.5 |
| 20260506195541 | 20 | 244 | 9.7 | 16.1 | 0.00 | 0.56 | 0.56 | 91 | 1010.6 |
| 20260506194520 | 20 | 234 | 6.4 | 11.3 | 0.00 | 0.56 | 0.56 | 94 | 1010.5 |
| 20260506193519 | 20 | 256 | 9.7 | 14.5 | 0.00 | 0.56 | 0.56 | 92 | 1010.5 |
| 20260506192517 | 19 | 240 | 11.3 | 16.1 | 0.00 | 0.56 | 0.56 | 94 | 1010.7 |
| 20260506191516 | 18 | 245 | 9.7 | 16.1 | 0.00 | 0.56 | 0.56 | 98 | 1010.7 |
| 20260506190528 | 17 | 237 | 9.7 | 14.5 | 0.00 | 0.56 | 0.56 | 99 | 1010.8 |
| 20260506185531 | 17 | 256 | 9.7 | 16.1 | 0.00 | 0.56 | 0.56 | 99 | 1010.8 |
| 20260506184539 | 17 | 209 | 9.7 | 14.5 | 0.00 | 0.56 | 0.56 | 98 | 1011.0 |
| 20260506183523 | 18 | 238 | 9.7 | 12.9 | 0.00 | 0.56 | 0.56 | 96 | 1011.0 |
| 20260506182528 | 18 | 203 | 9.7 | 12.9 | 0.00 | 0.56 | 0.56 | 96 | 1010.9 |
| 20260506181533 | 18 | 251 | 12.9 | 16.1 | 0.00 | 0.56 | 0.56 | 93 | 1010.9 |
| 20260506180540 | 18 | 225 | 11.3 | 14.5 | 0.00 | 0.56 | 0.56 | 93 | 1010.9 |
| 20260506175525 | 18 | 235 | 11.3 | 14.5 | 0.00 | 0.56 | 0.56 | 92 | 1010.9 |
| 20260506174529 | 19 | 239 | 11.3 | 17.7 | 0.00 | 0.56 | 0.56 | 90 | 1010.7 |
| 20260506173536 | 20 | 238 | 14.5 | 29.0 | 0.00 | 0.56 | 0.56 | 89 | 1010.7 |
| 20260506172520 | 18 | 230 | 11.3 | 19.3 | 0.00 | 0.56 | 0.56 | 92 | 1010.7 |
| 20260506171545 | 19 | 237 | 9.7 | 14.5 | 0.00 | 0.56 | 0.56 | 92 | 1010.7 |
| 20260506170531 | 19 | 248 | 11.3 | 20.9 | 0.00 | 0.56 | 0.56 | 93 | 1010.7 |
| 20260506165518 | 17 | 212 | 9.7 | 14.5 | 0.00 | 0.56 | 0.56 | 99 | 1010.9 |
| 20260506164522 | 17 | 219 | 11.3 | 17.7 | 0.00 | 0.56 | 0.56 | 99 | 1010.8 |
| 20260506163526 | 17 | 240 | 16.1 | 19.3 | 0.00 | 0.56 | 0.56 | 95 | 1010.8 |
| 20260506162531 | 17 | 244 | 11.3 | 17.7 | 0.00 | 0.56 | 0.56 | 94 | 1010.9 |
| 20260506161518 | 17 | 232 | 12.9 | 19.3 | 0.00 | 0.56 | 0.56 | 93 | 1010.8 |
| 20260506160603 | 18 | 217 | 11.3 | 24.1 | 0.00 | 0.56 | 0.56 | 92 | 1010.7 |
| 20260506155548 | 19 | 237 | 11.3 | 17.7 | 0.00 | 0.56 | 0.56 | 90 | 1010.7 |
| 20260506154532 | 19 | 215 | 11.3 | 19.3 | 0.00 | 0.56 | 0.56 | 90 | 1010.1 |
| 20260506153539 | 17 | 202 | 9.7 | 16.1 | 0.05 | 0.56 | 0.56 | 94 | 1010.4 |
| 20260506152524 | 17 | 229 | 9.7 | 16.1 | 0.10 | 0.56 | 0.56 | 96 | 1010.6 |
| 20260506151529 | 17 | 240 | 8.0 | 11.3 | 0.15 | 0.56 | 0.56 | 98 | 1010.5 |
| 20260506150516 | 16 | 217 | 8.0 | 16.1 | 0.20 | 0.56 | 0.56 | 99 | 1010.1 |
| 20260506145520 | 16 | 183 | 8.0 | 11.3 | 0.25 | 0.56 | 0.56 | 99 | 1010.3 |
| 20260506144525 | 15 | 210 | 9.7 | 16.1 | 0.30 | 0.58 | 0.56 | 99 | 1010.8 |
| 20260506143711 | 15 | 215 | 9.7 | 14.5 | 0.36 | 0.53 | 0.51 | 99 | 1011.0 |
| 20260506142516 | 15 | 185 | 11.3 | 19.3 | 0.36 | 0.48 | 0.46 | 99 | 1011.3 |
| 20260506141521 | 15 | 219 | 9.7 | 17.7 | 0.33 | 0.43 | 0.41 | 99 | 1011.3 |
| 20260506140526 | 15 | 210 | 6.4 | 11.3 | 0.30 | 0.38 | 0.36 | 99 | 1011.2 |
| 20260506135531 | 15 | 181 | 6.4 | 11.3 | 0.25 | 0.33 | 0.30 | 99 | 1011.1 |
| 20260506134538 | 15 | 196 | 8.0 | 12.9 | 0.20 | 0.28 | 0.25 | 99 | 1011.1 |
| 20260506133522 | 16 | 199 | 6.4 | 11.3 | 0.10 | 0.18 | 0.15 | 96 | 1010.9 |
| 20260506132528 | 16 | 224 | 6.4 | 12.9 | 0.05 | 0.13 | 0.10 | 95 | 1010.7 |
| 20260506131532 | 16 | 197 | 4.8 | 9.7 | 0.03 | 0.10 | 0.08 | 94 | 1010.7 |
| 20260506130559 | 16 | 158 | 6.4 | 11.3 | 0.03 | 0.08 | 0.05 | 92 | 1010.8 |
| 20260506125523 | 16 | 175 | 8.0 | 11.3 | 0.03 | 0.08 | 0.05 | 90 | 1010.8 |
| 20260506124528 | 16 | 206 | 8.0 | 12.9 | 0.03 | 0.08 | 0.05 | 91 | 1010.9 |
| 20260506123515 | 16 | 245 | 8.0 | 11.3 | 0.05 | 0.08 | 0.05 | 90 | 1010.7 |
| 20260506122520 | 16 | 219 | 9.7 | 17.7 | 0.05 | 0.08 | 0.05 | 91 | 1011.0 |
| 20260506121546 | 16 | 198 | 6.4 | 12.9 | 0.05 | 0.08 | 0.05 | 92 | 1011.1 |
| 20260506120543 | 16 | 188 | 6.4 | 11.3 | 0.03 | 0.05 | 0.03 | 92 | 1011.1 |
| 20260506115537 | 15 | 208 | 6.4 | 9.7 | 0.03 | 0.05 | 0.03 | 92 | 1011.2 |
| 20260506114522 | 16 | 193 | 8.0 | 12.9 | 0.03 | 0.05 | 0.03 | 91 | 1011.4 |
| 20260506113520 | 16 | 220 | 4.8 | 11.3 | 0.00 | 0.03 | 0.00 | 90 | 1011.2 |
| 20260506112519 | 16 | 202 | 6.4 | 14.5 | 0.00 | 0.03 | 0.00 | 87 | 1011.3 |
| 20260506111517 | 17 | 195 | 9.7 | 14.5 | 0.00 | 0.03 | 0.00 | 82 | 1011.1 |
| 20260506110537 | 18 | 191 | 9.7 | 14.5 | 0.00 | 0.03 | 0.00 | 77 | 1010.8 |
| 20260506105535 | 18 | 217 | 11.3 | 17.7 | 0.00 | 0.03 | 0.00 | 74 | 1010.5 |
| 20260506104532 | 19 | 214 | 11.3 | 20.9 | 0.00 | 0.03 | 0.00 | 69 | 1010.4 |
| 20260506103519 | 19 | 216 | 9.7 | 14.5 | 0.00 | 0.03 | 0.00 | 67 | 1010.1 |
| 20260506102524 | 19 | 217 | 8.0 | 11.3 | 0.00 | 0.03 | 0.00 | 65 | 1010.1 |
| 20260506101529 | 19 | 199 | 6.4 | 9.7 | 0.00 | 0.03 | 0.00 | 65 | 1010.0 |
| 20260506100536 | 20 | 191 | 9.7 | 16.1 | 0.00 | 0.03 | 0.00 | 65 | 1009.9 |
| 20260506095520 | 19 | 188 | 8.0 | 12.9 | 0.00 | 0.03 | 0.00 | 65 | 1009.9 |
| 20260506094525 | 19 | 191 | 9.7 | 19.3 | 0.00 | 0.03 | 0.00 | 65 | 1009.8 |
| 20260506093529 | 20 | 221 | 9.7 | 14.5 | 0.00 | 0.03 | 0.00 | 64 | 1010.0 |
| 20260506092557 | 20 | 216 | 6.4 | 11.3 | 0.00 | 0.03 | 0.00 | 63 | 1010.0 |
| 20260506091521 | 20 | 192 | 11.3 | 16.1 | 0.00 | 0.03 | 0.00 | 62 | 1010.0 |
| 20260506090526 | 20 | 178 | 9.7 | 17.7 | 0.00 | 0.03 | 0.00 | 62 | 1010.1 |
| 20260506085531 | 20 | 213 | 9.7 | 17.7 | 0.00 | 0.03 | 0.00 | 61 | 1010.5 |
| 20260506084517 | 20 | 206 | 8.0 | 12.9 | 0.00 | 0.03 | 0.00 | 60 | 1010.4 |
| 20260506083522 | 20 | 186 | 11.3 | 19.3 | 0.00 | 0.03 | 0.00 | 59 | 1010.5 |
| 20260506082527 | 20 | 181 | 9.7 | 24.1 | 0.00 | 0.03 | 0.00 | 58 | 1010.5 |
| 20260506081532 | 20 | 215 | 9.7 | 16.1 | 0.00 | 0.03 | 0.00 | 58 | 1010.4 |
| 20260506080519 | 21 | 219 | 12.9 | 20.9 | 0.00 | 0.03 | 0.00 | 57 | 1010.4 |
| 20260506072519 | 21 | 197 | 11.3 | 14.5 | 0.00 | 0.03 | 0.00 | 57 | 1010.6 |
| 20260506071524 | 21 | 210 | 9.7 | 14.5 | 0.00 | 0.03 | 0.00 | 57 | 1010.7 |
| 20260506070529 | 21 | 182 | 8.0 | 12.9 | 0.00 | 0.03 | 0.00 | 56 | 1010.8 |
| 20260506061517 | -17 | 0.0 | 0.0 | 0.00 | 0.03 | 0.00 | 1011.5 | ||
| 20260506060523 | 21 | 186 | 11.3 | 19.3 | 0.00 | 0.03 | 0.00 | 54 | 1011.4 |
| 20260506050532 | 21 | 168 | 9.7 | 14.5 | 0.00 | 0.03 | 0.00 | 52 | 1012.2 |
| 20260506044524 | 21 | 206 | 11.3 | 17.7 | 0.00 | 0.03 | 0.00 | 52 | 1012.1 |
| 20260506043529 | 21 | 161 | 8.0 | 11.3 | 0.00 | 0.03 | 0.00 | 52 | 1012.2 |
| 20260506042535 | 21 | 206 | 9.7 | 16.1 | 0.00 | 0.03 | 0.00 | 51 | 1012.1 |
| 20260506041520 | 21 | 202 | 6.4 | 11.3 | 0.00 | 0.03 | 0.00 | 51 | 1012.1 |
| 20260506040525 | 21 | 226 | 8.0 | 11.3 | 0.00 | 0.03 | 0.00 | 51 | 1012.0 |
| 20260506035524 | 21 | 194 | 6.4 | 11.3 | 0.00 | 0.03 | 0.03 | 50 | 1012.0 |
| 20260506034516 | 21 | 206 | 6.4 | 9.7 | 0.00 | 0.03 | 0.03 | 50 | 1012.2 |
| 20260506033521 | 21 | 207 | 6.4 | 9.7 | 0.00 | 0.03 | 0.03 | 49 | 1012.0 |
| 20260506032520 | 22 | 197 | 8.0 | 11.3 | 0.00 | 0.03 | 0.03 | 48 | 1011.9 |
| 20260506031519 | 22 | 198 | 9.7 | 16.1 | 0.00 | 0.03 | 0.03 | 47 | 1012.0 |
| 20260506030517 | 22 | 196 | 9.7 | 14.5 | 0.00 | 0.03 | 0.03 | 47 | 1012.0 |
| 20260506025517 | 22 | 200 | 9.7 | 16.1 | 0.00 | 0.03 | 0.03 | 47 | 1012.1 |
| 20260506024547 | 22 | 184 | 8.0 | 14.5 | 0.00 | 0.03 | 0.03 | 47 | 1012.1 |
| 20260506023532 | 22 | 184 | 8.0 | 16.1 | 0.00 | 0.03 | 0.03 | 47 | 1012.1 |
| 20260506022519 | 22 | 179 | 8.0 | 12.9 | 0.00 | 0.03 | 0.03 | 47 | 1012.2 |
| 20260506021523 | 22 | 206 | 9.7 | 19.3 | 0.00 | 0.03 | 0.03 | 47 | 1012.2 |
| 20260506020529 | 22 | 177 | 11.3 | 16.1 | 0.00 | 0.03 | 0.03 | 47 | 1012.1 |
| 20260506015533 | 22 | 176 | 9.7 | 14.5 | 0.00 | 0.03 | 0.03 | 47 | 1011.9 |
| 20260506014520 | 22 | 167 | 11.3 | 17.7 | 0.00 | 0.03 | 0.03 | 47 | 1011.9 |
| 20260506013524 | 22 | 185 | 6.4 | 11.3 | 0.00 | 0.03 | 0.03 | 48 | 1011.8 |